STARLINK-34889 (65761 NORAD) Tracking and Keplerian Element Data

This shows tracking and keplerian element data for the satellite.

Feedback or suggestion? Click here.




ElementValue
Catalog65761
NameSTARLINK-34889
Epoch Orbit1442
Epoch Day354.21924309
Epoch Year2025
RAAN342.2097
Inclination53.1612
Eccentricity0.0002218
Argument of Perigee78.4271
Mean Anonmoly281.6979
Mean Motion15.30224832
Decay Rate0.00016078
L11 65761U 25216AD 25354.21924309 .00016078 00000+0 55335-3 0 9995
L22 65761 53.1612 342.2097 0002218 78.4271 281.6979 15.30224832 14427



Live tracking and technical data element details for STARLINK-34889 (NORAD 65761). STARLINK-34889 can be tracked NOW for your location showing map with azimuth and elevation plus other details from your city location.







IsCatalogInMostPopularTable: catalog: 65761, numindb: 3
Update: records affected: 1



GetName: 65761 STARLINK-34889

Hit Count: updated at: Sun, 08 Feb 2026 16:29:50 GMT